Weather History for Henderson, NV

Change the Weather History Date:

Sunday, October 7, 2012

  Actual Average (KLAS) Record (KLAS)
Temperature  
Mean Temperature 71 °F 73 °F  
Max Temperature 83 °F 85 °F 99 °F (1978)
Min Temperature 59 °F 62 °F 36 °F (1941)
Degree Days  
Heating Degree Days 0 0  
Month to date heating degree days 0  
Since 1 July heating degree days 1  
Cooling Degree Days 6 9  
Month to date cooling degree days 69  
Year to date cooling degree days 3446  
Growing Degree Days 21 (Base 50)    
Moisture  
Dew Point 26 °F    
Average Humidity 20    
Maximum Humidity 34    
Minimum Humidity 10    
Precipitation  
Precipitation 0.00 in 0.00 in 0.03 in (1939)
Month to date precipitation 0.04  
Year to date precipitation 3.10  
Snow  
Snow 0.00 in 0.00 in 0.00 in ()
Month to date snowfall 0.0  
Since 1 July snowfall 0.0  
Since 1 September snowfall 0.0  
Snow Depth -    
Sea Level Pressure  
Sea Level Pressure 29.82 in    
Wind  
Wind Speed 6 mph (SSE)    
Max Wind Speed 9 mph    
Max Gust Speed -    
Visibility 10 miles    
Events      
T = Trace of Precipitation, MM = Missing Value Source: NWS Daily Summary

Daily Weather History Graph

Daily Weather History Graph

Search for Another Location

Airport:

Trip Planner

Search our weather history database for the weather conditions in past years. The results will help you decide how hot, cold, wet, or windy it might be!

Date:

Astronomy

Oct. 07, 2012 Rise Set
Actual Time 6:40 AM PDT 6:14 PM PDT
Civil Twilight 6:15 AM PDT 6:40 PM PDT
Nautical Twilight 5:45 AM PDT 7:10 PM PDT
Astronomical Twilight 5:15 AM PDT 7:39 PM PDT
Moon 11:37 PM PDT (10/7) 1:13 PM PDT (10/7)
Length of Visible Light 12h 25m
Length of Day
11h 33m
Waning Gibbous, 55% of the Moon is Illuminated
Oct 7
Waning Gibbous
Oct 8
Last Quarter
Oct 15
New
Oct 21
First Quarter
Oct 29
Full

Hourly Weather History & Observations

Time (PDT) Temp. Dew Point Humidity Pressure Visibility Wind Dir Wind Speed Gust Speed Precip Events Conditions
12:56 AM 68.9 °F 25.2 °F 19% 29.76 in 10.0 mi South 9.2 mph - N/A   Clear
1:56 AM 66.9 °F 26.1 °F 21% 29.77 in 10.0 mi SSW 9.2 mph - N/A   Clear
2:56 AM 65.8 °F 27.1 °F 23% 29.78 in 10.0 mi South 5.8 mph - N/A   Clear
3:56 AM 63.9 °F 28.0 °F 26% 29.79 in 10.0 mi SSE 5.8 mph - N/A   Clear
4:56 AM 61.9 °F 29.1 °F 29% 29.80 in 10.0 mi SSE 5.8 mph - N/A   Clear
5:56 AM 59.9 °F 31.1 °F 34% 29.83 in 10.0 mi SSE 6.9 mph - N/A   Clear
6:56 AM 59.0 °F 29.1 °F 32% 29.85 in 10.0 mi South 5.8 mph - N/A   Clear
7:56 AM 63.9 °F 31.1 °F 29% 29.88 in 10.0 mi Calm Calm - N/A   Clear
8:56 AM 72.0 °F 25.2 °F 17% 29.90 in 10.0 mi Calm Calm - N/A   Clear
9:56 AM 73.9 °F 23.0 °F 15% 29.91 in 10.0 mi NNE 8.1 mph - N/A   Clear
10:56 AM 77.0 °F 20.1 °F 12% 29.90 in 10.0 mi NE 9.2 mph - N/A   Clear
11:56 AM 79.0 °F 19.0 °F 11% 29.88 in 10.0 mi NE 6.9 mph - N/A   Clear
12:56 PM 79.9 °F 19.0 °F 10% 29.86 in 10.0 mi Variable 5.8 mph - N/A   Clear
1:56 PM 81.9 °F 21.0 °F 11% 29.83 in 10.0 mi NNE 8.1 mph - N/A   Clear
2:56 PM 82.9 °F 23.0 °F 11% 29.81 in 10.0 mi North 5.8 mph - N/A   Clear
3:56 PM 83.8 °F 23.0 °F 11% 29.79 in 10.0 mi Variable 3.5 mph - N/A   Clear
4:56 PM 82.9 °F 24.1 °F 12% 29.78 in 10.0 mi NW 3.5 mph - N/A   Clear
5:56 PM 82.9 °F 26.1 °F 13% 29.78 in 10.0 mi Calm Calm - N/A   Clear
6:56 PM 77.9 °F 28.0 °F 16% 29.79 in 10.0 mi Calm Calm - N/A   Clear
7:56 PM 72.9 °F 32.0 °F 22% 29.81 in 10.0 mi SSE 5.8 mph - N/A   Clear
8:56 PM 70.0 °F 32.0 °F 25% 29.82 in 10.0 mi South 6.9 mph - N/A   Clear
9:56 PM 68.0 °F 31.1 °F 25% 29.82 in 10.0 mi SSW 4.6 mph - N/A   Clear
10:56 PM 66.9 °F 28.0 °F 23% 29.81 in 10.0 mi South 6.9 mph - N/A   Clear
11:56 PM 65.8 °F 27.1 °F 23% 29.81 in 10.0 mi South 8.1 mph - N/A   Clear